Cloud_Cover
0 0 1 20 4 0 5 0 22 0 2 5 31 45 76 88 94 88 53 30 8 10 5 10 6 5 2 0 0 3 4 2 0 0 0 0 0 0 0 0 0 0 0
0 0 19 0 38 3 4 4 4 3 5 1 0 5 5 5 12 58 49 53 84 30 40 99 47 5 5 5 4 3 3 0 0 0 0 0 0 0 0 0 1 0 0
0 0 0 0 0 0 6 7 5 4 3 1 2 0 0 3 4 4 2 4 5 5 6 24 9 10 12 13 7 5 5 5 5 5 5 15 5 2 0 0 0 0 0
0 0 0 5 0 0 0 0 0 5 5 14 83 5 4 5 0 0 0 0 0 0 0 3 5 5 5 5 5 5 5 5 5 5 4 66 5 5 0 0 5 3 0
0 0 0 0 0 0 0 5 0 1 96 49 15 2 40 5 5 4 2 0 0 0 0 0 1 1 4 5 5 5 5 5 5 5 63 21 16 5 0 0 2 0 1
0 0 42 0 0 0 0 1 2 1 4 5 3 80 5 4 5 5 31 2 3 3 0 0 0 5 4 5 5 5 5 5 31 5 100 3 89 5 5 4 4 29 0
0 0 0 0 0 0 0 0 0 0 0 0 3 4 2 5 5 17 56 82 89 5 4 3 5 3 1 3 5 5 5 2 5 12 91 5 5 5 2 3 5 84 48
2 1 2 10 5 2 0 0 0 0 0 0 0 0 1 1 5 44 5 5 5 38 10 5 4 5 5 5 4 5 5 18 5 42 14 89 0 0 1 12 7 99 17
3 11 2 4 12 18 5 4 1 3 0 0 5 4 5 3 54 100 100 96 50 40 100 100 100 97 100 88 10 4 5 5 5 5 15 32 5 1 0 4 90 20 43
98 23 6 4 5 46 10 17 5 8 6 5 2 5 5 5 3 5 13 55 64 79 51 7 74 100 100 85 52 5 5 4 11 1 0 4 17 0 0 0 88 72 36
100 100 44 15 27 77 91 43 50 63 20 13 32 64 68 9 20 5 24 5 26 8 34 100 100 100 100 32 29 2 12 5 30 19 4 22 67 5 3 0 48 4 30
34 100 100 91 83 98 99 90 99 64 31 66 65 62 90 44 96 100 59 53 36 92 48 92 51 96 100 96 55 11 2 2 16 11 16 5 17 99 26 5 5 2 87
57 100 100 100 82 96 100 100 100 94 100 100 100 100 100 38 47 76 89 96 50 97 100 96 99 100 100 100 29 56 69 98 66 31 17 61 100 81 39 5 71 99 61
100 100 100 100 100 100 100 100 100 100 100 100 100 100 100 100 100 86 70 90 94 100 100 98 97 100 100 100 100 100 100 100 52 81 20 92 44 11 93 5 98 52 65
99 100 100 100 100 100 100 100 100 100 100 100 100 100 100 100 100 100 100 100 100 100 100 99 92 66 50 24 14 36 95 99 100 100 88 100 94 100 100 71 53 55 100
100 100 100 100 100 100 100 100 100 100 100 100 100 100 100 100 100 100 100 100 100 100 100 99 100 100 98 64 75 77 69 74 70 100 100 100 100 100 100 100 100 100 99
67 94 100 100 100 100 100 100 100 100 100 100 100 100 100 100 100 100 100 100 100 100 100 100 100 100 100 100 100 73 28 43 72 90 100 100 100 100 100 100 100 100 100
100 100 100 100 100 100 100 96 94 96 98 100 100 100 100 100 100 100 100 100 100 100 100 100 100 100 100 100 100 100 100 86 61 6 50 63 68 100 100 100 100 100 100
100 100 100 100 100 100 100 98 100 100 99 100 100 100 100 100 100 100 100 100 100 100 100 100 100 100 100 100 100 100 100 100 100 100 78 68 63 77 95 100 100 100 100
100 100 100 100 100 100 100 100 100 100 100 100 100 100 100 100 100 100 99 98 100 100 100 100 100 100 100 100 100 100 100 100 100 100 100 91 45 100 100 100 99 78 58
100 100 100 100 100 100 100 100 100 100 100 100 100 100 100 100 100 100 100 100 100 100 100 100 100 100 100 100 100 100 100 100 100 100 100 100 100 100 100 100 100 100 100
100 100 100 100 100 100 100 100 100 100 100 100 100 100 100 100 100 100 100 100 100 100 100 100 100 100 100 100 100 100 100 100 94 100 100 99 100 100 99 62 78 100 100
100 100 100 100 100 100 100 100 100 100 100 100 100 100 100 100 98 98 96 100 100 100 100 100 100 100 100 100 100 98 100 100 100 80 100 100 100 100 100 93 32 42 95
100 100 100 100 100 100 100 100 100 100 100 100 100 100 100 98 100 100 100 100 100 100 100 100 100 100 100 100 100 100 100 100 100 100 100 100 100 97 100 96 88 94 55
100 100 100 100 100 100 100 100 100 100 100 100 100 100 100 100 100 100 100 100 100 100 100 100 100 100 100 100 100 100 100 100 100 99 100 100 100 100 100 100 100 99 100
100 99 100 100 100 100 100 100 100 100 100 100 100 100 100 100 100 100 100 100 100 100 100 100 100 100 100 100 100 100 100 100 99 89 21 100 48 97 76 98 99 100 100